C/2014 W2 ( PanSTARRS )

Japanese version
Home page
Updated on May 22, 2017

---------------------------------------------------------------------

* Profile

Discovery Date November 17, 2014
Magnitude 18.8 mag
Discoverer Pan-STARRS 1 telescope (Haleakala)

* Pictures

* Orbital Elements

Epoch 2016 Feb. 22.0 TT = JDT 2457440.5
T 2016 Mar. 10.48375 TT                                 MPCW
q   2.6702050            (2000.0)            P               Q
z  +0.0006231      Peri.   85.00960     -0.10047074     -0.35270777
 +/-0.0000001      Node    69.96275     -0.27383994     -0.88913843
e   0.9983363      Incl.   81.99861     +0.95651310     -0.29159917
From 3020 observations 2014 Oct. 24-2017 Feb. 26, mean residual 0".4.

* Finding Charts

* Magnitudes Graph

        m1 = 4.0 + 5 log d + 14.0 log r

---------------------------------------------------------------------

The orbital elements are published on M.P.E.C. 2017-E59.
The charts are made with StellaNavigator Ver.8 (AstroArts).
The magnitudes graphs are made with Comet for Windows.

---------------------------------------------------------------------

Copyright(C) Seiichi Yoshida (comet@aerith.net). All rights reserved.